Wind_Speed
3 5 5 3 0 2 2 2 4 4 3 3 4 5 4 4 4 4 4 4 4 5 3 1 4 4 1 1 3 5 6 8 10 9 9 9 10 11 12 14 15 16 13 13 17 24 27 26 25 25 23 23 22 21 18 17 15 13 11 9 8 7 7 7 6 5 5 5 4 3 4 4 4 3 3 3 3 2 2 3 3 4 5 5 5 4
4 6 2 1 4 3 1 1 1 2 2 5 6 6 5 6 4 5 4 3 2 5 2 2 6 6 3 1 3 6 7 9 11 11 10 11 11 11 12 14 15 15 13 13 18 24 27 28 27 26 25 24 23 22 21 19 18 16 14 11 9 8 8 9 8 7 7 6 6 5 5 5 5 4 4 3 2 2 2 2 2 3 4 5 5 6
6 5 4 4 3 2 2 3 4 3 3 5 6 6 5 4 3 4 5 4 1 4 3 0 6 7 4 4 3 6 8 8 9 10 10 11 12 12 13 14 14 15 15 16 18 23 26 29 30 28 28 27 25 24 23 22 20 19 17 13 11 10 10 11 10 9 8 7 7 7 7 7 6 6 6 4 3 3 3 2 2 1 1 1 1 2
4 3 7 5 2 4 4 4 5 4 4 6 5 6 4 2 3 3 6 5 2 2 4 4 6 7 6 6 6 7 7 5 5 7 8 9 10 12 12 13 13 15 17 18 18 21 25 28 31 32 30 29 28 27 26 24 23 21 19 15 13 12 11 12 12 11 10 8 8 9 9 9 8 7 6 6 5 5 5 4 5 4 4 4 4 3
0 7 6 3 3 5 4 6 7 5 5 5 5 7 4 2 4 4 2 3 3 3 3 6 7 7 6 8 7 7 7 6 6 7 8 8 9 10 11 12 13 14 17 18 18 22 28 31 33 33 33 32 31 30 28 26 25 24 21 17 14 13 13 13 12 11 10 9 8 10 10 10 9 8 7 6 5 5 5 5 5 5 6 6 5 5
2 6 2 4 4 5 5 6 7 6 4 5 7 9 7 3 4 4 1 3 5 5 2 4 7 4 3 5 5 5 6 7 8 7 7 7 8 10 11 13 14 15 16 18 18 21 28 33 33 33 34 34 33 31 29 28 27 25 22 19 16 14 14 15 14 12 11 10 8 9 10 11 10 8 7 6 4 5 5 5 5 6 6 7 7 7
3 4 2 3 4 5 6 6 6 6 7 4 6 8 8 6 5 5 4 4 6 3 2 2 7 3 3 5 4 4 6 7 8 6 4 4 6 8 9 10 12 13 15 16 18 19 22 27 32 35 36 36 35 33 31 30 29 26 24 21 18 16 15 15 15 14 13 11 9 9 10 11 10 8 7 7 6 5 5 5 5 6 6 7 7 8
4 5 4 4 4 6 6 5 5 7 8 1 3 6 8 7 6 6 6 5 5 3 2 4 5 5 5 4 5 4 6 7 8 6 5 3 3 4 5 6 8 10 12 14 17 20 21 23 29 34 37 37 36 35 33 32 31 29 26 24 20 18 16 15 15 15 14 13 11 11 12 12 10 9 8 7 6 5 5 5 5 5 5 6 7 7
4 4 5 5 6 7 5 1 3 8 7 1 3 3 5 6 5 5 6 6 3 3 5 6 4 5 6 3 5 5 7 8 7 4 2 2 2 0 3 5 7 8 11 13 15 18 21 23 26 29 34 35 35 36 35 34 33 31 28 26 22 19 17 17 17 16 15 14 13 13 15 15 13 11 9 7 6 5 5 5 5 5 5 5 6 7
3 2 2 5 6 5 0 5 1 7 4 2 3 4 4 5 4 5 6 6 3 5 8 4 4 5 6 4 5 5 5 4 3 1 1 2 3 3 3 5 7 8 10 13 15 17 18 19 22 25 30 33 35 36 35 35 36 34 31 28 24 22 20 19 18 17 17 16 15 15 16 16 14 13 11 9 7 6 5 4 4 5 5 5 5 6
3 3 1 5 7 2 4 5 2 2 1 4 6 6 6 6 5 5 5 4 4 7 5 3 4 5 6 4 3 1 1 2 3 2 3 4 6 7 7 8 9 9 9 10 13 15 16 16 17 19 24 29 33 35 34 35 37 36 33 29 26 25 22 20 20 19 19 18 18 17 17 17 15 13 12 10 8 6 5 5 4 5 5 5 4 4
4 6 4 4 6 2 2 3 2 1 4 5 6 6 6 5 4 5 5 4 6 6 2 5 4 5 7 3 2 4 3 3 3 4 5 7 8 9 10 10 9 9 9 9 9 10 13 16 16 17 19 23 29 32 32 35 38 38 34 31 29 27 24 22 22 21 20 20 19 19 18 17 15 13 12 11 9 7 6 5 5 6 6 5 5 4
5 5 4 4 6 7 7 5 4 5 6 6 7 6 6 6 5 6 6 5 6 3 4 5 3 5 7 1 5 4 3 3 2 3 5 7 9 10 10 9 9 9 9 8 7 6 8 12 15 17 17 19 24 28 29 33 37 37 35 33 32 29 25 24 23 23 22 21 21 20 20 19 16 14 12 11 10 8 7 7 6 6 6 7 6 5
4 4 6 5 6 7 9 7 4 5 6 8 7 6 7 6 6 7 6 6 6 2 5 4 2 5 6 1 5 4 3 2 1 2 3 5 7 8 8 9 8 9 9 8 6 3 3 7 11 13 14 16 20 24 27 31 34 37 37 34 31 29 27 26 25 24 24 22 22 22 21 20 18 15 13 12 11 10 9 9 7 6 7 7 7 6
5 3 5 3 3 5 9 7 5 4 5 7 6 6 7 6 6 7 6 6 7 2 5 5 3 5 5 2 5 4 4 3 2 2 2 2 4 5 6 8 9 9 9 8 8 6 3 4 7 9 11 12 15 20 25 29 32 36 35 32 31 32 31 28 26 26 25 24 23 22 23 22 20 17 15 13 12 11 11 10 9 8 8 8 8 8
7 4 4 3 3 3 5 4 5 6 6 5 4 7 7 5 6 5 3 3 5 4 2 4 4 3 0 4 5 5 5 5 4 4 4 4 5 5 7 9 10 10 10 10 9 8 7 6 6 6 7 9 11 16 20 24 28 31 31 31 34 35 33 30 28 27 27 26 24 23 23 22 21 19 18 16 15 13 12 12 11 10 9 9 10 10
6 3 6 5 3 2 2 2 3 6 5 2 5 8 3 3 6 6 2 2 1 7 7 5 6 4 3 4 7 7 7 7 6 6 6 6 6 6 8 10 10 11 12 12 10 9 9 9 9 7 5 5 7 9 13 17 20 23 25 30 35 36 34 31 30 29 28 27 26 24 22 21 20 20 19 19 18 16 14 13 13 13 12 11 11 11
4 4 3 3 2 4 2 3 4 5 5 4 5 4 1 2 5 6 5 3 4 8 7 6 9 8 6 4 7 9 9 9 8 7 7 6 6 8 10 10 10 11 13 13 12 10 10 11 11 9 7 5 4 4 6 9 12 14 18 26 32 34 34 33 30 29 29 29 27 24 22 21 20 20 20 20 19 18 17 16 15 15 15 14 14 13
3 7 3 3 1 3 4 4 5 5 6 7 4 1 2 5 6 6 6 7 8 8 7 9 10 9 9 5 8 11 11 11 9 8 8 7 7 8 8 9 10 11 12 14 14 13 12 13 13 12 10 7 6 6 4 3 6 9 14 21 27 29 30 31 30 30 30 30 28 25 24 23 22 21 21 21 21 20 20 19 18 17 17 16 16 16
1 5 2 4 3 1 3 6 7 6 7 5 5 4 4 5 6 6 6 6 8 8 8 9 9 8 7 5 9 12 12 13 11 9 8 7 7 7 7 8 9 11 12 12 14 15 15 15 14 14 13 11 10 8 7 5 3 4 8 14 19 22 23 26 28 31 32 31 29 28 28 27 24 23 23 23 23 22 21 21 20 20 19 18 19 19
2 3 4 3 4 3 5 4 4 5 3 5 6 7 7 5 4 6 7 7 7 9 8 8 9 7 3 1 7 11 11 12 11 9 8 7 7 7 7 8 8 10 11 12 13 15 16 17 16 15 15 14 13 11 10 8 6 3 2 5 8 11 14 17 21 25 28 30 31 32 32 30 27 26 25 25 24 24 23 23 23 22 21 20 20 20
2 3 5 5 4 6 2 3 4 6 5 5 6 7 8 7 6 7 9 8 7 9 9 8 10 6 2 2 3 8 9 10 10 10 9 9 8 8 8 8 8 9 10 12 14 15 16 17 17 17 16 16 15 13 13 11 9 6 3 4 5 5 6 8 11 14 18 21 25 29 31 32 32 30 28 27 26 25 25 25 25 25 24 23 22 22
2 3 6 7 7 8 2 5 2 3 5 6 6 7 7 7 8 9 10 8 7 8 7 8 10 4 4 5 3 6 7 8 9 10 10 10 9 8 8 8 8 9 10 11 14 16 16 16 17 17 17 17 17 16 15 14 13 9 6 5 4 4 4 5 7 8 10 12 15 19 24 28 31 33 33 32 30 29 28 27 27 27 26 25 24 23
1 3 6 7 8 8 4 2 3 2 4 7 7 6 6 7 8 8 8 7 7 9 8 8 10 4 4 4 4 4 5 7 8 8 10 10 8 8 8 8 8 8 9 10 12 14 15 15 15 15 16 16 17 17 16 15 13 10 8 8 7 4 3 4 5 6 8 10 11 12 16 20 23 27 32 34 35 35 33 31 28 28 28 27 27 26
2 4 4 6 7 7 6 6 5 6 6 7 6 4 4 6 7 5 6 6 7 11 11 10 10 4 4 3 1 2 3 6 7 8 9 9 8 8 7 7 7 7 7 8 10 12 13 13 13 13 14 14 14 14 14 13 11 10 9 9 8 5 3 2 2 4 6 9 11 11 13 17 19 21 25 30 33 35 36 36 35 33 30 29 29 29
4 5 4 6 7 6 7 6 3 2 4 5 4 4 4 6 7 6 7 9 8 9 8 9 10 3 6 6 5 4 5 6 8 8 8 8 8 8 7 6 5 6 6 7 8 9 11 11 11 12 11 11 11 10 10 9 9 8 7 7 6 3 3 3 1 2 4 6 9 10 12 16 19 19 20 22 24 26 28 32 35 37 36 34 32 31
4 5 6 9 10 8 9 8 4 6 6 7 6 7 6 5 7 7 7 9 9 8 9 10 11 8 6 9 9 8 8 8 9 10 11 10 9 8 7 5 5 5 6 6 6 7 9 10 10 10 10 9 9 8 8 7 6 5 3 3 2 1 1 2 2 3 4 4 5 6 8 12 16 16 16 17 18 18 19 22 26 29 33 35 34 33
5 6 8 11 12 11 13 13 9 8 10 12 12 11 10 8 8 9 9 10 10 9 10 10 9 10 10 9 10 10 9 9 9 12 13 12 11 10 8 6 5 5 5 5 5 6 7 8 8 7 7 7 7 7 7 6 6 5 4 4 3 3 4 6 7 7 8 8 8 9 10 11 13 13 13 14 14 15 16 18 20 21 23 27 30 31
5 7 8 10 13 13 13 13 11 10 11 13 14 14 13 12 12 12 12 14 13 11 11 11 10 11 10 8 8 8 9 10 11 12 12 11 11 11 9 8 7 6 5 5 5 5 6 6 6 5 4 5 4 4 4 4 5 6 6 5 5 5 5 6 7 9 9 10 11 13 13 13 13 13 13 13 12 13 14 15 17 18 19 22 24 25
4 5 6 9 13 13 14 14 13 13 13 14 15 15 15 15 15 14 14 15 16 16 15 14 12 11 8 9 10 7 6 10 11 10 11 12 12 12 11 10 9 7 6 5 5 5 6 6 6 5 5 5 4 4 4 3 4 6 7 7 7 7 7 7 7 8 9 9 11 13 14 14 15 15 16 15 15 14 14 14 16 17 17 18 20 21
2 3 2 6 11 11 13 14 14 14 15 16 16 17 16 16 16 15 14 13 13 14 14 12 11 9 9 12 13 6 2 6 9 11 13 13 13 13 12 10 9 8 7 6 5 5 5 5 5 6 6 6 6 6 6 6 6 7 9 10 10 10 10 10 10 10 10 11 12 13 14 15 16 17 17 18 18 17 17 16 15 16 17 17 17 20
3 5 4 6 9 10 11 13 14 14 16 18 18 17 17 16 15 13 12 12 12 12 12 12 12 9 7 11 14 10 6 8 11 12 12 12 12 13 12 11 10 9 7 6 5 4 4 4 5 6 6 6 7 8 8 8 9 9 10 12 13 14 14 14 14 14 14 14 14 14 15 16 16 17 17 18 20 20 20 20 16 14 15 15 16 19
4 6 6 7 9 9 8 9 9 9 12 12 10 10 13 15 15 15 15 14 15 13 11 11 10 6 4 4 9 10 10 12 12 10 9 11 12 13 12 11 10 8 6 5 3 3 3 4 5 6 7 7 7 8 9 10 11 12 13 15 15 16 16 16 17 18 17 17 17 16 17 17 17 17 18 18 20 21 22 21 18 15 14 14 15 16
5 6 6 7 8 8 8 6 6 8 10 5 2 3 3 7 10 13 13 12 11 9 8 10 9 6 5 4 6 8 7 6 4 4 6 8 10 11 11 10 9 7 4 2 1 1 3 4 6 7 8 8 8 10 11 11 12 14 15 15 16 17 18 18 18 19 19 19 19 19 19 19 18 19 19 19 20 21 22 21 19 16 13 13 14 16
6 6 6 6 6 7 7 6 8 9 4 2 4 4 2 3 5 7 7 5 5 5 7 8 8 7 6 5 4 4 2 1 4 5 5 6 7 8 9 10 8 6 4 3 2 3 5 6 7 8 9 9 11 12 12 11 12 14 15 16 17 18 18 18 18 19 20 20 21 21 20 20 20 20 21 21 21 22 23 22 22 19 14 13 16 17
7 6 6 6 6 7 6 7 9 6 2 1 1 2 2 2 3 5 4 1 4 4 4 4 4 4 3 2 1 1 2 4 6 6 6 6 6 5 5 6 4 3 3 3 4 6 7 8 8 9 10 11 12 12 11 12 12 14 16 17 19 18 18 18 19 19 20 21 21 22 22 22 22 22 22 21 21 23 24 23 25 23 15 13 17 18
8 7 7 7 7 7 8 9 9 8 8 7 4 2 3 2 3 4 5 1 4 4 3 3 2 2 3 1 0 0 3 6 7 7 7 7 6 5 3 2 0 2 3 5 6 7 8 9 9 10 11 12 13 13 13 14 14 14 16 18 19 19 18 19 19 20 21 21 22 23 24 24 24 23 23 23 21 22 23 24 26 24 17 15 18 18
7 7 6 7 6 6 8 9 8 10 9 3 3 4 4 3 3 4 5 3 3 5 4 4 3 3 3 2 2 2 4 7 7 7 7 5 4 3 3 3 3 4 5 7 8 8 9 10 10 11 12 13 14 15 14 15 15 15 16 17 18 18 18 18 19 21 21 22 23 25 25 26 25 25 25 24 23 22 23 25 25 21 16 16 18 17
5 6 6 7 7 7 8 8 8 9 5 3 5 4 5 3 3 4 6 4 3 7 7 5 4 4 4 4 5 5 5 8 8 6 6 4 5 5 7 7 6 7 8 8 9 9 10 12 14 14 14 15 15 15 15 15 15 16 16 16 17 17 17 19 21 21 22 24 26 27 27 27 27 27 26 26 25 23 23 25 24 18 14 17 19 18
6 5 6 8 8 8 8 8 8 7 2 4 5 6 7 5 2 4 6 3 4 10 9 7 7 7 6 7 7 5 6 8 7 2 6 9 9 9 10 10 11 12 12 12 12 13 15 16 16 16 16 17 18 18 18 17 17 17 18 18 19 18 18 20 22 21 22 24 27 29 29 29 28 28 27 27 26 24 24 25 21 15 15 17 18 17
5 5 6 7 8 9 10 9 8 6 1 5 5 6 5 2 2 5 5 2 6 11 11 10 11 10 9 10 9 8 9 10 10 11 12 13 13 13 13 13 14 14 15 15 16 18 21 21 20 21 22 22 21 21 21 20 19 19 20 20 20 20 21 23 23 22 23 25 27 29 30 29 29 28 27 26 25 25 25 22 17 15 16 18 18 17
5 4 6 7 7 8 8 8 9 6 3 7 5 4 2 2 4 3 4 5 8 11 12 12 13 12 11 12 11 11 13 13 13 14 14 15 16 17 17 18 18 18 19 19 20 22 23 23 24 25 25 24 24 23 21 21 21 21 21 22 22 23 25 25 25 25 25 25 26 27 27 28 28 26 25 23 23 23 21 18 16 16 18 19 18 18
3 4 6 6 6 7 7 8 9 5 3 6 6 4 1 3 6 7 9 11 12 13 13 14 14 13 13 14 13 14 15 15 15 15 15 16 17 18 19 21 21 22 22 23 24 24 23 24 25 25 24 24 23 22 22 22 23 23 23 24 24 24 25 25 25 26 27 26 25 24 25 26 25 24 23 21 20 18 18 19 20 19 18 19 19 19
3 4 6 5 3 4 6 6 4 3 3 5 6 5 5 7 10 12 14 16 16 15 15 15 15 14 15 15 16 17 18 18 18 17 16 17 18 19 20 21 22 24 24 24 25 25 25 26 27 26 25 24 22 23 24 24 24 24 25 25 24 25 25 25 26 26 26 26 24 22 22 21 21 21 21 19 18 19 21 23 22 19 18 19 19 20
1 2 5 5 3 4 7 8 9 11 12 11 10 10 12 13 13 13 15 16 17 17 16 16 16 15 15 16 18 19 20 20 21 20 20 20 20 21 22 23 24 25 25 26 26 25 25 26 27 26 25 24 23 24 25 25 25 26 26 24 24 24 24 24 24 24 24 24 23 20 19 18 18 20 20 18 19 23 24 23 20 19 21 20 19 24
4 5 6 6 6 9 11 12 12 14 16 15 15 16 16 16 14 14 14 16 17 17 18 19 19 18 18 18 19 20 22 23 24 25 25 25 24 25 26 26 26 26 26 26 26 24 25 26 27 27 27 26 25 25 25 25 26 26 25 24 23 24 24 23 23 23 23 23 22 20 18 18 18 19 18 18 21 23 21 20 20 21 21 19 24 30
3 3 5 7 8 8 8 7 9 13 16 17 19 19 18 17 16 15 16 18 19 20 21 21 21 21 21 21 21 23 24 25 26 26 26 26 26 26 26 27 27 26 26 26 25 25 26 27 27 27 27 27 26 25 25 25 25 25 24 24 24 24 24 23 23 24 23 22 21 19 17 17 19 19 18 19 21 20 19 20 21 21 21 26 32 31
3 4 4 8 8 8 9 12 15 19 19 19 19 19 17 16 16 17 19 21 21 22 23 23 23 23 22 22 23 24 26 27 27 27 27 27 26 26 26 27 26 26 26 25 25 25 25 26 27 28 27 27 26 25 25 25 26 26 26 25 25 25 24 24 24 24 23 21 21 19 17 17 18 18 18 19 19 20 22 22 21 22 26 31 30 27
6 5 6 8 8 9 11 13 15 16 15 16 18 18 18 18 20 22 23 23 23 24 24 24 25 25 25 25 25 26 27 28 28 28 28 28 27 27 27 27 27 26 26 25 25 25 25 27 29 29 29 29 27 26 26 27 27 27 27 26 25 24 23 24 24 24 23 22 21 20 18 18 18 17 19 19 19 19 20 21 24 29 30 28 25 24
7 7 6 7 8 8 9 12 13 12 12 16 19 20 21 23 24 24 24 24 24 24 24 25 26 26 27 27 27 27 28 28 27 27 27 27 27 27 27 27 27 27 26 26 26 27 27 28 30 30 31 30 29 28 28 28 27 27 26 26 25 24 24 25 25 24 23 22 21 20 19 19 18 16 18 20 21 23 25 28 30 29 28 25 22 21
8 8 7 7 9 10 13 17 18 16 17 21 24 25 26 26 25 25 25 24 23 23 24 25 26 26 27 26 25 25 25 26 26 26 27 28 28 28 28 28 28 28 28 27 28 29 29 29 30 30 30 30 29 28 28 27 27 26 25 25 25 25 25 25 25 24 23 22 23 22 21 20 18 17 22 27 31 34 36 34 30 25 23 21 20 19
Wind_Direction
239 235 224 237 352 54 50 334 332 347 329 280 249 239 235 229 204 129 96 71 11 293 222 156 288 265 272 8 155 179 198 215 217 211 216 220 220 220 217 216 215 211 199 184 197 208 205 200 201 202 201 201 199 196 195 196 198 197 204 215 218 211 191 171 159 169 181 180 187 170 156 154 144 143 139 134 141 158 200 220 226 227 224 228 229 219
231 244 215 49 28 46 110 191 274 290 264 240 239 232 222 232 208 114 100 97 38 292 219 147 272 251 227 252 163 174 199 214 215 215 218 222 226 228 227 224 221 215 201 194 207 216 210 204 206 207 206 207 204 201 200 200 203 202 204 213 216 211 192 169 158 168 179 177 174 166 157 151 144 140 127 129 171 191 219 231 234 236 228 233 236 224
223 234 118 89 63 109 152 186 206 231 235 227 231 236 226 219 200 126 127 134 97 284 263 171 277 263 242 242 201 190 206 208 209 219 224 226 229 230 232 231 227 220 208 203 212 221 218 210 210 211 210 211 209 207 207 205 206 206 206 210 213 210 194 174 164 170 183 181 170 164 161 152 150 157 148 142 145 118 95 89 84 85 174 176 187 217
227 152 108 105 144 169 168 178 203 213 215 223 223 230 225 175 219 201 145 145 142 287 296 304 280 267 245 228 216 202 206 199 196 220 231 236 237 234 239 238 232 227 218 212 211 221 225 217 214 214 213 213 212 211 211 209 209 209 207 208 213 210 195 181 172 173 182 183 171 163 159 153 150 154 146 132 118 104 92 80 71 65 72 91 115 113
263 90 103 142 189 205 191 175 204 225 208 207 225 243 243 166 239 266 124 147 193 191 270 285 267 255 233 225 215 186 195 210 205 216 224 232 240 242 247 247 241 235 229 224 215 219 230 228 222 218 216 216 214 214 215 213 212 211 207 206 213 211 197 186 178 177 180 178 174 166 158 152 148 145 137 124 112 103 92 81 72 63 66 77 95 104
94 87 134 194 198 215 213 195 206 236 235 201 208 233 252 240 233 255 235 235 239 202 170 295 275 249 183 213 210 169 190 202 194 203 212 215 225 233 241 246 246 243 239 235 225 223 231 234 229 223 220 219 217 217 219 219 217 214 210 207 212 212 199 190 182 179 179 176 179 175 163 155 150 146 140 136 133 120 106 99 87 73 69 72 82 95
97 112 186 215 213 210 223 224 193 218 251 222 184 206 228 235 224 232 231 236 259 248 124 278 279 270 191 200 170 159 199 193 177 175 174 195 216 229 237 243 247 248 247 244 237 230 228 232 234 231 227 223 220 220 221 223 221 216 212 208 210 212 202 193 187 181 179 176 180 177 165 159 155 154 155 154 150 139 130 123 107 92 81 76 80 90
130 148 181 216 229 221 229 226 175 211 247 251 120 191 209 215 214 222 232 239 270 304 204 216 258 276 256 220 141 159 222 209 188 167 146 164 199 234 253 256 259 259 256 252 247 238 229 228 234 236 234 230 224 221 222 226 225 218 214 210 209 211 204 198 193 185 179 176 179 174 167 167 165 165 168 164 158 154 147 137 122 110 101 94 90 91
158 189 200 217 237 238 238 65 141 218 239 54 79 207 208 209 212 218 241 252 260 290 258 213 209 260 258 213 154 186 224 212 190 164 127 124 116 248 282 285 282 276 267 259 253 246 238 232 232 235 238 237 230 225 224 228 229 221 216 212 208 210 208 202 197 189 180 176 179 178 173 175 177 176 177 174 172 171 160 150 139 127 119 113 107 101
160 210 233 243 249 250 305 51 53 232 232 92 146 185 182 190 205 221 251 264 234 257 268 212 179 266 269 220 189 193 211 201 165 99 18 28 29 5 342 320 304 294 280 267 257 252 243 235 232 233 237 239 236 231 227 229 230 224 218 213 208 210 210 205 199 192 183 178 181 184 182 183 184 183 183 183 185 184 175 170 157 142 139 131 122 114
142 151 205 247 254 296 63 70 30 271 172 144 180 190 190 194 204 223 245 269 255 251 253 156 167 264 270 236 201 137 62 15 349 335 348 350 349 352 348 335 326 317 302 284 267 256 245 235 228 221 225 233 235 232 228 228 230 226 220 214 210 211 210 206 202 195 187 182 184 189 189 191 191 188 188 190 192 192 192 193 179 162 159 155 148 137
185 194 184 204 225 224 166 157 117 166 185 193 208 214 219 215 214 232 223 217 251 253 161 115 155 234 253 239 116 90 67 34 336 324 336 333 337 347 346 339 337 332 320 306 285 264 241 230 222 211 212 224 231 232 229 227 228 226 219 214 212 211 211 210 206 199 192 187 188 191 192 196 198 193 192 198 201 202 207 210 199 184 179 178 178 171
222 203 144 152 190 207 223 205 156 175 199 214 227 227 235 236 227 241 238 228 246 241 111 116 162 228 249 217 100 107 86 58 359 336 329 328 335 341 345 346 348 347 340 328 311 279 232 214 212 212 210 215 227 232 228 225 226 224 218 215 214 213 212 214 211 203 198 193 191 193 194 197 202 200 198 204 211 217 220 220 217 202 193 196 201 201
238 160 146 172 171 195 227 223 191 193 198 214 228 230 242 248 242 245 247 248 252 200 109 124 183 241 246 123 90 97 84 63 26 0 337 334 338 342 352 358 4 7 2 357 358 346 220 195 195 201 200 203 217 226 224 223 224 223 219 216 216 216 215 217 215 208 204 199 196 196 196 198 203 205 206 210 217 222 223 227 234 220 200 204 213 219
266 195 158 181 128 171 222 242 280 288 219 221 236 243 249 253 254 259 261 263 265 229 123 140 189 250 248 119 89 100 109 111 102 81 46 13 4 7 14 16 22 23 20 22 30 43 82 144 160 172 178 188 208 219 219 219 221 223 219 214 216 218 218 219 218 213 209 204 200 199 200 201 205 208 210 215 219 220 222 231 238 230 211 206 211 221
266 257 104 86 85 168 224 252 288 282 245 221 233 245 253 257 253 263 290 309 302 285 210 187 222 260 136 116 122 132 137 136 126 121 111 81 58 47 40 34 33 31 31 36 42 50 67 93 114 134 162 188 210 220 222 221 222 223 217 212 216 219 219 220 220 218 213 208 205 204 203 204 206 210 212 216 222 222 223 231 237 238 230 216 213 224
254 247 105 112 138 142 293 291 232 256 263 202 229 244 252 287 266 258 248 99 287 270 258 236 242 233 167 162 156 154 155 149 144 138 119 93 75 64 51 41 39 41 42 44 49 54 63 77 87 98 124 171 205 222 230 230 230 229 218 214 219 220 219 220 220 220 218 212 211 210 207 207 209 212 215 219 223 225 225 231 236 239 237 230 227 234
278 269 159 171 183 110 67 270 214 235 264 251 244 243 164 248 257 249 255 235 228 257 258 234 239 239 236 208 158 165 170 158 153 143 125 106 87 72 58 48 44 48 51 53 60 68 78 84 86 91 102 119 146 181 215 226 231 228 216 217 224 225 223 223 222 224 224 219 216 217 215 214 215 217 219 222 227 228 229 232 235 238 240 239 238 241
287 268 209 159 226 126 143 230 224 200 229 261 287 296 220 250 245 227 247 255 249 258 258 243 239 241 252 226 162 177 181 164 157 149 135 116 94 78 65 55 47 49 53 55 61 70 85 95 95 95 100 110 119 122 133 181 218 222 213 216 225 230 231 229 227 228 229 226 221 222 223 221 221 223 224 226 229 231 233 235 237 239 241 242 242 244
244 265 244 130 125 162 203 227 240 211 196 229 259 244 238 265 268 252 249 257 260 261 264 261 251 245 258 229 180 187 181 166 162 153 137 117 98 84 71 60 50 50 52 55 61 67 77 88 96 102 108 111 112 112 111 116 155 204 218 219 224 233 237 237 235 233 235 234 228 227 228 226 225 227 229 230 232 234 236 238 240 242 243 244 245 247
223 247 258 198 144 226 241 221 271 289 235 223 236 234 230 235 259 266 255 250 258 263 263 267 262 260 280 228 197 190 173 164 162 152 138 123 109 92 78 69 59 57 57 59 64 68 72 77 83 92 101 105 107 112 114 113 112 114 189 213 214 227 236 241 243 242 242 241 237 234 234 234 232 232 234 235 236 238 240 241 243 245 245 245 245 247
269 243 257 261 236 245 255 70 4 334 323 285 267 255 250 246 249 258 253 243 245 260 266 268 270 275 27 41 182 164 156 156 155 148 140 130 119 104 88 78 71 68 66 68 71 72 72 74 76 80 86 95 101 106 110 113 112 118 166 188 178 194 215 230 243 249 252 250 247 243 242 241 240 239 240 241 241 241 243 244 244 245 246 246 245 247
344 271 259 262 259 262 320 64 47 310 301 285 276 273 272 264 253 254 259 259 254 260 271 272 270 276 63 45 69 122 134 139 145 147 142 134 125 115 103 92 84 78 74 75 79 80 77 76 77 79 82 87 92 94 95 99 105 119 148 159 152 174 200 210 221 235 243 248 249 248 246 248 248 245 244 244 245 246 248 248 248 247 246 246 246 246
179 259 258 255 256 260 253 143 157 190 246 257 250 252 267 271 269 269 277 285 270 261 264 263 260 248 93 64 60 93 115 126 138 148 146 139 131 126 117 105 96 88 81 79 81 82 81 80 79 79 79 81 84 88 90 92 99 107 111 103 101 120 181 208 220 229 235 242 248 248 243 248 255 255 249 246 246 247 250 251 252 252 249 248 248 248
236 252 255 262 260 249 233 218 203 196 217 244 249 249 271 278 279 280 278 274 261 260 263 259 260 253 114 119 137 128 137 147 149 152 150 147 143 139 129 117 108 99 92 85 83 83 82 80 79 77 77 77 78 84 89 91 94 93 89 90 94 94 97 130 204 238 242 248 255 255 245 242 250 255 253 250 249 249 251 252 254 255 254 252 251 250
260 268 259 264 263 252 250 249 245 246 239 237 245 252 260 264 263 264 264 256 251 260 259 253 261 255 126 150 184 171 168 171 161 160 163 159 155 151 140 132 122 110 102 93 87 86 83 82 81 79 78 77 76 78 81 82 83 83 80 83 88 77 53 54 22 281 257 255 260 261 256 251 251 254 254 254 254 253 253 254 255 257 257 255 254 253
257 267 254 257 261 266 274 278 320 340 301 271 264 259 250 250 257 263 261 254 257 261 251 248 258 253 204 190 192 182 184 185 174 178 182 173 165 162 154 149 140 123 113 100 92 89 87 85 83 81 80 76 72 70 69 65 57 48 45 56 75 81 315 311 308 297 279 277 277 268 262 258 255 257 257 256 255 256 255 254 256 257 257 256 255 254
252 255 250 254 259 266 277 283 294 303 285 277 277 271 263 254 246 248 253 261 271 269 259 260 261 252 242 225 206 189 186 192 188 190 190 181 172 170 165 164 159 144 127 109 98 89 83 83 81 80 81 76 68 62 58 50 35 18 1 345 325 293 279 270 266 271 274 276 279 276 273 268 262 261 262 260 257 257 255 253 252 251 255 258 256 254
265 264 259 259 262 265 270 273 272 271 268 269 270 268 268 263 252 249 250 257 265 262 263 279 274 251 246 253 245 221 203 208 207 198 193 182 175 174 172 173 171 161 145 125 104 88 77 72 67 63 61 58 53 47 42 34 18 8 1 352 333 316 304 288 275 276 282 284 284 282 282 282 278 276 278 276 270 264 259 255 251 248 250 255 256 255
282 275 270 269 270 271 270 266 263 261 260 261 260 259 259 260 257 256 254 255 260 260 263 277 280 260 249 267 276 268 230 227 222 203 190 184 179 177 177 178 174 165 155 135 112 94 77 65 55 44 33 23 13 3 356 351 346 345 340 335 329 323 318 314 307 300 298 296 293 291 291 292 289 288 288 284 281 277 271 263 256 252 248 245 246 249
255 275 303 282 275 273 271 268 262 259 259 260 259 256 256 256 255 254 256 255 258 262 264 267 271 265 257 260 263 263 219 226 220 203 193 187 181 178 179 181 174 165 158 138 115 99 79 66 50 34 21 7 357 350 341 333 332 333 325 318 318 318 314 312 310 307 304 300 295 293 293 293 293 293 292 289 286 283 281 276 263 253 251 244 241 246
241 266 275 271 270 272 272 268 265 267 270 266 261 256 252 252 252 252 253 252 250 257 263 260 260 267 269 258 251 241 225 230 230 219 201 185 178 181 183 182 175 165 155 138 117 93 72 52 32 20 9 355 349 344 335 329 329 326 316 311 313 313 312 311 310 307 305 302 299 297 294 292 290 290 290 289 288 285 286 284 271 254 251 247 242 247
256 268 272 268 269 275 277 277 281 284 278 269 265 259 247 248 255 257 254 254 251 251 256 259 265 290 329 289 261 256 252 248 246 233 206 183 179 185 187 182 175 163 150 138 115 81 54 30 14 3 352 346 342 334 327 323 320 316 312 312 314 315 315 315 313 309 308 306 304 302 298 294 292 289 286 285 285 285 285 284 275 257 249 246 242 244
254 260 269 268 268 272 275 286 291 274 265 266 14 18 280 267 273 271 267 268 268 269 277 281 284 298 311 295 282 285 283 263 234 196 182 179 179 184 187 186 180 172 167 166 127 22 7 0 351 342 339 336 328 322 323 322 318 315 315 316 317 318 318 316 313 311 310 309 308 305 301 297 294 290 287 283 282 282 282 281 275 261 249 248 246 240
249 250 258 260 261 269 275 272 262 259 262 68 75 63 24 318 299 291 289 306 329 319 302 294 294 299 300 291 281 285 292 162 169 174 175 173 173 179 189 195 198 205 225 252 286 317 331 332 328 326 324 320 319 321 322 320 315 313 314 314 314 315 316 314 312 312 311 310 307 304 301 298 295 291 289 285 282 280 279 279 276 268 256 252 254 246
245 246 253 255 252 257 259 248 248 263 339 22 203 77 39 268 269 280 265 102 45 357 317 308 304 314 330 330 258 237 200 175 173 168 157 143 134 144 171 185 201 229 260 293 306 313 315 313 314 314 311 311 314 315 312 308 306 306 306 306 307 309 310 308 307 308 309 308 305 301 298 297 295 292 290 286 282 279 277 276 276 273 261 258 264 253
240 246 248 249 247 249 256 255 258 274 282 268 252 59 30 311 308 306 276 229 65 30 357 352 330 311 316 310 67 40 200 196 185 158 134 119 106 105 116 129 283 298 303 308 306 307 308 308 308 306 305 308 308 307 305 303 301 300 299 300 302 303 304 304 303 304 305 303 300 298 296 295 294 291 289 286 281 278 276 275 275 271 259 258 266 259
227 243 243 246 246 244 257 266 267 268 273 286 79 70 42 359 329 308 279 251 78 51 16 1 351 326 311 300 310 287 226 224 218 168 128 96 70 54 8 338 324 314 311 310 308 306 305 303 301 299 299 301 301 301 301 299 296 293 292 293 296 298 298 298 299 301 301 297 296 296 295 294 292 290 288 285 281 276 274 274 273 265 255 256 260 254
212 237 242 248 253 248 254 263 264 264 273 64 71 47 29 11 327 294 260 236 44 21 1 345 332 318 316 329 323 294 254 245 230 165 105 29 350 344 331 319 316 313 307 306 307 305 304 303 301 301 299 297 297 296 294 292 289 286 283 283 288 291 290 292 295 297 295 294 294 295 294 294 291 287 284 282 280 275 272 272 269 258 248 254 254 246
206 225 235 243 249 249 253 257 262 271 300 71 55 26 29 32 350 281 256 245 3 353 343 337 322 306 302 312 312 290 265 261 261 315 8 338 322 323 319 314 314 311 306 305 304 301 303 304 303 302 300 297 296 295 294 291 286 280 278 280 282 283 283 288 293 292 290 291 294 294 294 293 291 287 281 276 274 272 268 267 264 250 243 249 249 243
225 229 239 248 252 252 254 257 262 270 81 81 46 25 32 24 261 254 259 311 339 327 329 330 317 304 298 296 291 279 275 277 287 309 320 315 309 311 309 307 307 305 303 303 303 304 305 304 301 300 298 296 295 295 294 291 286 281 280 280 280 279 283 288 289 287 287 288 290 292 292 292 291 287 278 271 267 265 262 259 252 241 241 246 246 243
252 249 250 253 256 258 256 259 266 267 87 66 15 357 19 268 257 272 315 320 312 313 319 316 308 304 298 292 287 283 281 282 286 294 300 302 303 304 304 305 304 303 302 302 302 304 304 302 299 298 296 295 294 293 291 288 283 280 279 278 277 280 285 287 285 284 285 284 285 287 288 289 289 283 273 265 260 257 254 249 243 239 241 243 244 244
276 275 263 253 257 263 256 253 261 263 74 44 354 332 319 286 302 321 317 306 307 314 312 305 300 296 289 285 285 283 282 282 284 288 291 293 296 298 300 301 301 301 302 301 299 299 297 294 292 291 289 289 288 287 286 284 282 280 278 276 277 281 283 282 280 280 281 279 279 280 281 285 287 279 267 259 254 251 246 243 242 238 235 237 242 237
271 268 272 270 271 266 252 249 282 320 0 357 333 312 300 300 304 307 303 300 303 306 303 300 297 291 285 283 283 282 281 281 284 287 289 289 291 293 293 294 295 295 295 294 293 293 292 289 287 285 283 282 281 280 280 281 280 278 276 274 276 279 278 276 276 277 276 275 274 273 275 281 281 271 262 257 252 245 239 239 240 234 229 234 235 218
266 288 290 286 284 279 270 278 303 304 295 298 303 298 296 296 295 296 295 292 292 293 295 297 296 293 290 287 283 281 279 279 282 284 285 286 288 288 289 289 289 289 289 289 288 288 287 285 284 283 281 279 276 275 276 277 276 274 273 275 276 275 273 271 270 269 268 269 268 265 268 273 271 265 262 254 245 241 239 238 235 229 230 231 216 194
283 295 294 282 280 285 278 274 282 285 284 289 294 293 292 292 291 293 293 289 288 289 290 290 289 290 290 288 285 282 278 278 280 280 281 283 284 285 286 286 285 285 284 284 284 283 282 281 281 280 278 277 275 274 273 273 271 270 271 273 273 271 270 268 267 264 263 262 261 259 262 266 266 262 254 243 240 242 241 234 227 228 229 211 185 175
293 336 304 280 278 283 278 272 280 285 288 292 293 292 290 287 286 288 288 288 290 289 287 286 286 287 286 285 283 281 279 279 279 280 281 282 282 282 283 283 283 284 283 282 282 282 280 280 280 279 278 276 275 273 272 271 269 268 269 268 268 268 266 264 263 260 258 257 256 255 256 258 258 254 247 242 242 240 233 227 227 224 207 183 171 167
354 25 314 283 279 280 280 284 288 288 289 291 290 289 289 289 291 293 291 289 288 286 284 282 280 281 282 282 281 280 280 280 280 280 282 282 282 283 283 283 284 284 283 283 282 281 280 281 281 281 280 278 277 275 274 272 270 269 268 266 266 264 261 260 259 256 254 253 251 248 247 248 250 250 248 246 240 232 228 223 211 191 174 166 162 157
310 308 295 290 288 282 279 285 290 292 292 291 288 288 290 295 299 300 298 295 291 286 285 283 280 278 278 278 278 278 279 280 280 281 282 282 283 283 283 284 285 285 284 284 282 281 281 281 281 281 280 280 280 278 277 274 272 270 268 266 264 261 258 258 256 254 254 252 246 243 243 245 248 250 247 236 222 212 207 193 172 159 154 153 153 153
296 290 292 292 285 281 286 296 302 301 294 290 292 294 296 300 303 301 299 298 295 293 294 293 290 286 281 278 276 277 278 279 280 281 282 283 283 283 284 286 286 285 284 284 284 283 282 281 280 279 279 279 279 278 277 275 272 269 267 265 263 260 258 257 255 256 256 250 241 237 238 240 244 241 227 210 190 172 162 156 152 149 147 148 150 150
302 296 297 291 285 286 291 297 300 297 290 290 294 297 299 302 302 299 296 294 295 297 299 299 298 294 288 282 279 276 277 279 280 282 284 283 283 283 285 285 285 285 284 284 284 283 282 280 279 278 278 278 278 277 276 274 272 271 268 265 263 260 258 255 252 252 249 242 236 234 232 234 231 208 182 168 158 151 147 147 146 143 139 137 136 134
Height
1490 1488 1486 1483 1482 1483 1485 1486 1485 1484 1484 1482 1480 1479 1478 1478 1477 1477 1481 1483 1483 1482 1478 1479 1481 1479 1479 1479 1480 1483 1484 1485 1485 1485 1487 1487 1488 1488 1489 1490 1491 1494 1496 1498 1498 1500 1503 1505 1507 1509 1511 1512 1514 1516 1517 1519 1520 1522 1523 1524 1525 1526 1526 1526 1527 1528 1529 1530 1530 1530 1531 1531 1531 1532 1532 1532 1532 1532 1532 1532 1532 1532 1533 1533 1533 1534
1491 1488 1483 1482 1484 1487 1488 1488 1488 1487 1486 1485 1482 1480 1479 1479 1476 1477 1482 1484 1484 1484 1479 1480 1482 1478 1478 1478 1479 1482 1483 1483 1483 1484 1486 1486 1487 1488 1488 1489 1491 1493 1496 1496 1496 1498 1501 1504 1505 1507 1509 1511 1512 1514 1516 1517 1519 1520 1522 1523 1524 1525 1526 1526 1527 1528 1528 1529 1530 1530 1531 1532 1532 1532 1533 1533 1532 1532 1532 1531 1531 1531 1531 1532 1532 1532
1489 1484 1482 1486 1488 1489 1490 1489 1489 1488 1487 1485 1482 1480 1480 1477 1476 1479 1484 1483 1485 1485 1479 1479 1482 1478 1475 1477 1477 1479 1480 1481 1482 1483 1484 1485 1486 1487 1487 1488 1490 1492 1494 1494 1495 1496 1498 1501 1503 1505 1507 1509 1511 1513 1514 1516 1517 1519 1521 1522 1523 1524 1525 1526 1526 1527 1528 1528 1529 1530 1530 1531 1532 1532 1532 1533 1532 1532 1532 1532 1531 1531 1531 1531 1531 1531
1484 1481 1483 1488 1489 1489 1490 1489 1489 1487 1486 1484 1481 1481 1480 1477 1479 1482 1484 1484 1485 1485 1482 1481 1483 1478 1474 1475 1476 1478 1479 1480 1482 1483 1484 1485 1485 1486 1486 1487 1489 1490 1491 1492 1493 1494 1496 1498 1500 1502 1504 1506 1508 1510 1511 1514 1515 1517 1519 1521 1522 1524 1525 1525 1526 1526 1527 1528 1528 1529 1530 1530 1531 1531 1532 1532 1532 1532 1532 1532 1532 1531 1531 1531 1531 1531
1480 1482 1486 1488 1489 1488 1488 1489 1488 1485 1483 1483 1482 1481 1479 1479 1482 1480 1482 1485 1484 1486 1485 1482 1483 1476 1470 1474 1473 1475 1479 1480 1482 1483 1484 1485 1485 1486 1486 1487 1487 1488 1489 1491 1492 1493 1493 1494 1496 1498 1501 1503 1505 1507 1509 1511 1513 1515 1518 1520 1521 1523 1524 1524 1525 1526 1526 1527 1528 1529 1530 1530 1531 1532 1532 1532 1533 1533 1533 1533 1532 1532 1531 1531 1531 1531
1480 1486 1488 1488 1488 1487 1487 1486 1485 1483 1481 1481 1483 1481 1479 1480 1482 1481 1483 1485 1484 1487 1486 1484 1489 1480 1469 1472 1473 1473 1477 1478 1479 1481 1482 1483 1484 1485 1486 1486 1486 1487 1488 1489 1490 1491 1491 1491 1493 1496 1498 1500 1502 1504 1507 1509 1511 1513 1516 1519 1520 1522 1523 1524 1524 1525 1526 1527 1528 1528 1529 1530 1531 1532 1532 1533 1533 1533 1533 1533 1533 1533 1532 1532 1532 1532
1482 1487 1488 1487 1487 1486 1486 1483 1482 1483 1481 1480 1479 1478 1479 1480 1482 1483 1483 1485 1485 1485 1484 1484 1490 1485 1473 1472 1473 1474 1475 1475 1477 1479 1481 1482 1483 1483 1484 1485 1485 1485 1486 1487 1488 1489 1490 1490 1491 1493 1494 1496 1500 1502 1505 1507 1509 1512 1515 1517 1519 1520 1522 1523 1524 1525 1525 1526 1527 1528 1529 1530 1531 1532 1533 1533 1533 1534 1534 1534 1534 1533 1533 1533 1533 1532
1484 1487 1488 1487 1486 1485 1482 1479 1480 1481 1480 1480 1479 1477 1478 1479 1482 1484 1482 1484 1482 1481 1484 1482 1484 1487 1481 1472 1472 1475 1475 1474 1475 1477 1480 1481 1483 1483 1483 1484 1484 1485 1485 1485 1485 1486 1487 1488 1488 1489 1491 1494 1497 1500 1502 1504 1506 1510 1512 1515 1517 1519 1521 1522 1523 1524 1525 1526 1527 1528 1529 1530 1531 1532 1532 1533 1533 1534 1534 1534 1534 1534 1534 1534 1534 1533
1484 1485 1486 1485 1485 1483 1476 1475 1479 1480 1480 1481 1481 1479 1477 1478 1480 1481 1480 1481 1481 1486 1488 1480 1481 1490 1483 1471 1472 1475 1474 1474 1474 1476 1479 1480 1482 1483 1483 1484 1484 1484 1484 1483 1483 1483 1484 1486 1486 1487 1489 1491 1495 1497 1500 1502 1504 1508 1510 1513 1516 1518 1519 1520 1522 1523 1524 1525 1527 1528 1528 1529 1530 1531 1532 1533 1533 1534 1534 1534 1535 1535 1535 1535 1534 1534
1483 1484 1484 1483 1483 1479 1475 1477 1480 1480 1480 1481 1481 1479 1478 1479 1479 1481 1481 1478 1482 1492 1490 1480 1482 1490 1483 1471 1471 1474 1473 1474 1475 1476 1478 1479 1481 1482 1483 1484 1483 1483 1483 1482 1481 1481 1482 1483 1484 1485 1486 1488 1491 1494 1498 1501 1502 1505 1508 1511 1514 1516 1518 1519 1520 1522 1523 1524 1526 1527 1528 1528 1529 1530 1531 1532 1533 1533 1534 1534 1535 1535 1535 1535 1535 1535
1481 1483 1484 1483 1481 1478 1478 1482 1483 1481 1482 1482 1481 1479 1479 1479 1478 1480 1479 1477 1487 1493 1486 1481 1482 1489 1488 1473 1468 1474 1477 1478 1479 1478 1478 1479 1480 1481 1482 1482 1482 1481 1481 1480 1479 1479 1479 1480 1482 1483 1484 1485 1488 1490 1495 1498 1500 1503 1506 1509 1512 1514 1516 1518 1519 1521 1522 1523 1524 1526 1527 1528 1529 1529 1530 1531 1532 1533 1534 1534 1535 1535 1535 1535 1535 1535
1478 1481 1480 1480 1480 1480 1480 1482 1483 1483 1482 1481 1479 1479 1483 1484 1482 1483 1481 1485 1496 1493 1483 1481 1482 1489 1492 1477 1470 1477 1479 1480 1482 1480 1480 1480 1480 1482 1482 1482 1481 1480 1479 1478 1478 1477 1477 1477 1479 1481 1482 1484 1485 1487 1492 1495 1497 1500 1504 1507 1510 1512 1514 1516 1518 1519 1521 1522 1523 1525 1526 1527 1528 1529 1530 1531 1531 1532 1533 1534 1534 1535 1535 1535 1535 1535
1474 1472 1474 1478 1479 1480 1479 1479 1482 1483 1481 1481 1479 1481 1488 1490 1492 1494 1488 1487 1490 1486 1481 1482 1485 1490 1486 1475 1475 1479 1479 1481 1483 1482 1482 1482 1482 1482 1482 1481 1480 1480 1478 1477 1476 1475 1475 1476 1477 1478 1481 1482 1483 1485 1489 1492 1494 1498 1501 1504 1507 1510 1513 1514 1516 1518 1519 1521 1522 1523 1525 1526 1528 1529 1530 1530 1531 1532 1533 1534 1534 1535 1535 1535 1535 1535
1473 1470 1472 1476 1477 1478 1477 1475 1479 1480 1479 1479 1478 1482 1489 1492 1498 1500 1490 1484 1483 1482 1482 1482 1488 1490 1479 1474 1478 1479 1480 1483 1483 1484 1484 1483 1484 1483 1482 1481 1480 1479 1478 1477 1476 1475 1475 1475 1476 1477 1479 1482 1482 1484 1487 1489 1492 1495 1498 1502 1506 1509 1511 1512 1514 1516 1518 1520 1521 1523 1524 1526 1527 1528 1529 1530 1531 1532 1533 1533 1534 1535 1535 1535 1535 1535
1480 1477 1473 1474 1476 1477 1476 1473 1473 1474 1474 1474 1472 1475 1483 1485 1493 1496 1489 1484 1482 1481 1485 1488 1491 1486 1477 1478 1480 1479 1482 1483 1483 1485 1485 1484 1484 1483 1483 1482 1481 1480 1479 1478 1476 1476 1476 1476 1477 1477 1479 1481 1482 1484 1486 1488 1490 1493 1497 1502 1505 1506 1508 1510 1513 1514 1516 1518 1520 1522 1523 1525 1526 1527 1528 1529 1530 1530 1531 1532 1533 1534 1535 1535 1535 1535
1483 1478 1472 1474 1476 1476 1475 1473 1472 1474 1474 1472 1469 1474 1478 1476 1479 1487 1489 1488 1487 1486 1487 1488 1484 1475 1474 1480 1479 1479 1482 1482 1484 1485 1484 1485 1484 1484 1484 1482 1481 1481 1479 1478 1477 1477 1477 1476 1477 1478 1479 1481 1482 1484 1486 1487 1490 1492 1497 1501 1502 1503 1506 1508 1511 1513 1515 1517 1518 1520 1521 1523 1524 1525 1526 1528 1528 1529 1530 1531 1531 1532 1533 1534 1534 1534
1483 1477 1470 1474 1476 1474 1476 1475 1474 1476 1476 1474 1475 1475 1473 1469 1472 1483 1491 1492 1495 1495 1485 1479 1478 1474 1476 1480 1477 1479 1481 1480 1483 1484 1483 1485 1485 1484 1485 1483 1483 1482 1479 1479 1478 1477 1477 1477 1477 1478 1480 1482 1483 1484 1486 1488 1490 1492 1496 1499 1500 1502 1504 1506 1509 1511 1513 1515 1517 1518 1520 1521 1522 1523 1525 1526 1527 1527 1529 1529 1530 1531 1532 1532 1533 1533
1483 1479 1470 1471 1475 1475 1477 1476 1473 1475 1475 1475 1477 1473 1468 1471 1473 1479 1489 1490 1493 1494 1481 1474 1480 1478 1476 1479 1477 1477 1480 1480 1481 1482 1483 1485 1485 1485 1485 1485 1485 1483 1481 1480 1478 1478 1477 1477 1478 1479 1481 1482 1483 1485 1487 1488 1490 1493 1496 1498 1499 1501 1503 1505 1508 1509 1511 1513 1515 1517 1519 1520 1521 1522 1523 1524 1525 1526 1527 1528 1529 1530 1530 1531 1532 1532
1485 1482 1472 1469 1474 1475 1475 1477 1475 1474 1474 1473 1473 1470 1471 1480 1481 1479 1487 1490 1489 1491 1482 1474 1476 1474 1469 1471 1474 1475 1477 1479 1480 1481 1483 1484 1485 1486 1486 1487 1486 1484 1484 1482 1480 1479 1478 1477 1478 1479 1481 1482 1483 1485 1486 1488 1490 1492 1495 1497 1498 1500 1501 1504 1506 1508 1509 1511 1514 1516 1517 1518 1519 1520 1521 1522 1523 1524 1525 1526 1527 1528 1529 1530 1530 1530
1484 1486 1480 1470 1472 1475 1473 1474 1474 1472 1472 1473 1473 1470 1470 1477 1478 1476 1480 1482 1484 1488 1485 1478 1476 1471 1463 1460 1466 1470 1472 1475 1479 1480 1482 1484 1486 1487 1487 1488 1487 1486 1486 1484 1483 1482 1481 1480 1479 1480 1482 1482 1484 1485 1486 1488 1490 1492 1495 1496 1497 1499 1500 1502 1504 1506 1507 1509 1512 1514 1514 1516 1517 1518 1519 1520 1521 1522 1523 1524 1525 1526 1527 1528 1529 1529
1483 1488 1486 1473 1470 1475 1473 1471 1471 1469 1470 1472 1473 1472 1472 1473 1473 1474 1473 1472 1477 1484 1484 1484 1480 1469 1459 1457 1460 1465 1469 1474 1477 1479 1482 1485 1487 1488 1488 1488 1488 1488 1487 1486 1486 1485 1484 1483 1483 1482 1483 1483 1484 1486 1487 1489 1490 1493 1496 1497 1497 1498 1499 1501 1502 1504 1505 1507 1510 1511 1512 1514 1515 1516 1517 1518 1519 1520 1521 1522 1523 1524 1525 1526 1527 1527
1484 1486 1487 1479 1474 1474 1471 1471 1473 1474 1473 1473 1471 1470 1469 1470 1474 1480 1478 1469 1471 1476 1476 1480 1479 1468 1462 1462 1461 1464 1471 1474 1476 1479 1482 1485 1487 1488 1489 1489 1489 1489 1489 1488 1487 1486 1486 1486 1486 1486 1485 1484 1486 1487 1488 1488 1490 1494 1497 1498 1497 1497 1499 1501 1502 1503 1504 1505 1506 1508 1510 1512 1513 1515 1515 1515 1517 1517 1518 1520 1520 1521 1523 1523 1525 1525
1487 1486 1486 1484 1477 1472 1471 1474 1477 1477 1476 1475 1474 1470 1468 1468 1472 1480 1481 1472 1471 1473 1470 1475 1477 1471 1470 1470 1468 1470 1474 1476 1478 1481 1483 1485 1488 1489 1490 1490 1490 1490 1490 1489 1488 1488 1488 1488 1489 1489 1488 1488 1489 1489 1489 1488 1490 1495 1498 1497 1495 1495 1497 1499 1500 1502 1503 1504 1505 1505 1506 1509 1511 1512 1513 1513 1513 1514 1516 1517 1518 1519 1520 1521 1522 1523
1489 1486 1485 1483 1475 1468 1469 1473 1475 1477 1478 1476 1473 1471 1471 1471 1470 1474 1475 1473 1476 1475 1473 1479 1480 1474 1473 1475 1476 1477 1478 1479 1481 1482 1483 1486 1488 1490 1490 1491 1491 1491 1492 1491 1490 1489 1489 1490 1491 1491 1491 1491 1490 1490 1490 1490 1493 1496 1497 1495 1494 1495 1497 1497 1498 1500 1501 1503 1503 1503 1503 1505 1507 1510 1510 1510 1510 1511 1512 1514 1515 1516 1517 1519 1520 1520
1489 1485 1485 1486 1482 1478 1476 1475 1475 1476 1476 1473 1472 1473 1475 1473 1473 1476 1475 1475 1479 1475 1472 1479 1478 1471 1474 1478 1478 1480 1480 1480 1483 1484 1485 1487 1488 1490 1491 1491 1492 1492 1493 1493 1492 1491 1491 1491 1492 1492 1492 1492 1492 1492 1492 1493 1495 1496 1496 1494 1494 1496 1496 1496 1498 1499 1500 1501 1502 1501 1501 1502 1505 1508 1508 1508 1507 1507 1508 1510 1512 1513 1514 1516 1516 1517
1489 1485 1486 1490 1489 1488 1484 1478 1476 1476 1473 1471 1473 1476 1477 1475 1476 1478 1477 1479 1481 1476 1473 1477 1473 1468 1474 1478 1478 1480 1481 1481 1483 1485 1486 1487 1489 1490 1491 1492 1492 1492 1493 1493 1493 1492 1492 1492 1492 1493 1493 1494 1494 1494 1494 1495 1495 1495 1495 1494 1494 1495 1495 1495 1497 1498 1499 1499 1499 1499 1500 1502 1505 1506 1506 1506 1505 1505 1505 1506 1508 1509 1511 1512 1513 1513
1488 1485 1486 1487 1485 1483 1479 1472 1473 1477 1477 1476 1476 1476 1476 1477 1478 1478 1479 1478 1477 1476 1475 1472 1469 1469 1473 1475 1477 1479 1480 1481 1483 1485 1486 1487 1488 1490 1490 1492 1492 1492 1493 1493 1493 1493 1492 1492 1492 1493 1493 1494 1494 1495 1495 1495 1495 1494 1494 1494 1493 1493 1494 1495 1496 1498 1499 1499 1499 1499 1501 1503 1503 1503 1503 1503 1503 1503 1503 1503 1504 1505 1506 1507 1509 1509
1489 1487 1485 1485 1483 1480 1477 1474 1475 1480 1481 1479 1478 1477 1476 1477 1478 1480 1481 1476 1473 1477 1475 1466 1467 1472 1471 1469 1472 1476 1478 1480 1481 1482 1484 1485 1487 1489 1490 1491 1492 1492 1493 1493 1493 1493 1492 1492 1492 1492 1493 1493 1493 1494 1494 1494 1494 1494 1494 1494 1493 1493 1494 1495 1497 1498 1499 1499 1499 1499 1500 1501 1500 1500 1500 1500 1499 1500 1500 1501 1502 1503 1503 1503 1504 1505
1489 1488 1484 1483 1484 1481 1478 1478 1479 1480 1481 1479 1478 1479 1478 1477 1478 1480 1480 1476 1474 1477 1474 1466 1468 1472 1470 1466 1468 1472 1475 1477 1478 1481 1483 1485 1487 1488 1489 1491 1491 1492 1492 1493 1493 1493 1492 1492 1492 1492 1492 1492 1492 1493 1493 1493 1493 1494 1494 1494 1494 1494 1494 1495 1496 1497 1497 1497 1497 1497 1498 1498 1497 1497 1497 1496 1496 1497 1497 1499 1499 1500 1500 1500 1500 1501
1490 1488 1484 1484 1484 1481 1478 1478 1478 1479 1480 1479 1478 1477 1477 1477 1477 1477 1477 1475 1474 1473 1471 1470 1472 1472 1470 1469 1469 1470 1474 1475 1477 1480 1482 1484 1486 1487 1488 1490 1490 1491 1492 1492 1492 1492 1492 1492 1492 1492 1492 1492 1492 1492 1492 1492 1492 1493 1494 1494 1494 1494 1494 1494 1495 1495 1495 1495 1495 1495 1495 1495 1495 1495 1495 1494 1494 1494 1495 1496 1497 1497 1497 1496 1496 1497
1492 1489 1486 1487 1487 1483 1479 1477 1476 1477 1477 1477 1476 1474 1474 1475 1475 1475 1475 1475 1475 1474 1472 1474 1477 1475 1471 1470 1470 1471 1474 1475 1477 1479 1481 1482 1484 1486 1487 1488 1489 1490 1491 1491 1492 1492 1492 1492 1492 1492 1492 1492 1492 1492 1491 1491 1492 1492 1493 1493 1493 1493 1493 1493 1493 1493 1493 1494 1494 1494 1494 1494 1494 1493 1492 1492 1491 1491 1492 1493 1494 1494 1494 1493 1493 1493
1492 1489 1487 1489 1489 1483 1478 1477 1476 1476 1475 1474 1473 1472 1473 1474 1474 1474 1474 1474 1475 1477 1476 1477 1476 1473 1470 1469 1469 1470 1473 1474 1474 1476 1479 1481 1482 1484 1486 1487 1488 1489 1490 1491 1491 1492 1492 1492 1492 1492 1492 1492 1492 1491 1491 1491 1491 1492 1492 1492 1492 1492 1491 1490 1490 1491 1491 1492 1492 1492 1492 1492 1492 1491 1490 1490 1489 1489 1489 1489 1490 1491 1491 1491 1490 1490
1490 1489 1487 1487 1487 1483 1478 1478 1479 1480 1480 1476 1472 1471 1472 1473 1473 1472 1471 1470 1472 1474 1476 1475 1472 1471 1470 1470 1469 1469 1470 1472 1472 1475 1478 1480 1481 1483 1484 1485 1487 1488 1489 1490 1491 1491 1492 1492 1492 1491 1491 1491 1491 1491 1490 1490 1490 1490 1490 1490 1490 1489 1489 1488 1488 1488 1489 1489 1490 1490 1489 1489 1489 1488 1488 1488 1487 1487 1486 1486 1487 1488 1488 1488 1488 1487
1490 1491 1489 1486 1486 1484 1479 1480 1486 1488 1484 1476 1472 1472 1474 1474 1474 1473 1470 1470 1471 1473 1473 1472 1471 1472 1473 1473 1472 1471 1471 1472 1474 1476 1478 1479 1480 1482 1483 1485 1486 1487 1488 1489 1490 1491 1491 1490 1491 1490 1490 1490 1490 1489 1489 1489 1489 1488 1488 1488 1487 1487 1487 1486 1486 1487 1487 1487 1487 1487 1486 1486 1486 1486 1485 1485 1485 1484 1484 1484 1484 1484 1485 1485 1485 1484
1491 1493 1489 1486 1487 1485 1480 1486 1496 1491 1479 1474 1473 1475 1477 1477 1477 1476 1475 1475 1476 1476 1476 1475 1473 1474 1474 1474 1474 1475 1474 1475 1477 1478 1479 1480 1480 1481 1482 1484 1485 1486 1487 1488 1488 1489 1489 1489 1489 1489 1488 1488 1488 1488 1488 1488 1487 1487 1486 1486 1485 1485 1485 1485 1485 1485 1484 1484 1484 1484 1484 1483 1483 1483 1482 1482 1482 1482 1481 1481 1480 1480 1481 1482 1481 1481
1490 1491 1489 1486 1486 1485 1484 1489 1492 1482 1472 1472 1475 1476 1477 1477 1476 1477 1477 1477 1479 1479 1477 1476 1475 1475 1477 1477 1476 1476 1476 1477 1477 1478 1479 1480 1480 1481 1482 1483 1484 1485 1486 1486 1486 1487 1487 1487 1487 1487 1486 1486 1486 1486 1486 1486 1486 1485 1484 1484 1483 1483 1483 1483 1483 1483 1482 1482 1481 1481 1481 1480 1480 1480 1479 1479 1479 1479 1479 1478 1477 1477 1478 1478 1478 1478
1488 1487 1486 1486 1485 1484 1484 1481 1477 1474 1471 1473 1476 1478 1480 1480 1479 1480 1479 1477 1479 1480 1478 1477 1476 1476 1477 1478 1477 1478 1477 1476 1476 1477 1479 1480 1480 1481 1482 1482 1484 1484 1484 1485 1485 1485 1485 1485 1485 1485 1484 1484 1484 1484 1484 1484 1483 1483 1482 1482 1481 1481 1481 1481 1480 1480 1480 1479 1478 1478 1477 1477 1477 1476 1476 1476 1476 1476 1476 1475 1475 1474 1475 1475 1474 1475
1487 1485 1486 1487 1484 1482 1484 1481 1478 1478 1476 1474 1478 1482 1483 1482 1482 1483 1481 1478 1479 1481 1480 1479 1478 1477 1478 1478 1478 1478 1477 1475 1474 1475 1479 1480 1480 1481 1482 1482 1482 1483 1483 1484 1483 1483 1484 1483 1483 1482 1482 1481 1481 1481 1481 1481 1481 1480 1480 1480 1479 1479 1479 1478 1478 1477 1477 1476 1475 1475 1474 1474 1473 1473 1473 1472 1473 1473 1472 1472 1472 1472 1472 1472 1472 1472
1488 1486 1486 1488 1485 1482 1486 1487 1483 1479 1476 1477 1481 1483 1483 1483 1483 1484 1482 1479 1480 1483 1482 1480 1480 1479 1479 1480 1479 1478 1476 1473 1470 1472 1477 1479 1479 1480 1481 1480 1481 1481 1481 1482 1482 1481 1481 1480 1480 1479 1479 1479 1479 1479 1479 1479 1478 1478 1477 1477 1477 1477 1476 1476 1475 1475 1474 1472 1472 1471 1471 1470 1470 1469 1469 1469 1469 1469 1469 1468 1468 1469 1469 1469 1468 1469
1488 1487 1486 1487 1486 1483 1485 1485 1480 1474 1475 1480 1484 1484 1484 1484 1485 1487 1484 1481 1484 1486 1484 1482 1482 1481 1480 1481 1480 1477 1475 1472 1470 1472 1476 1478 1478 1479 1479 1479 1479 1479 1478 1479 1479 1478 1477 1477 1476 1476 1475 1475 1475 1475 1475 1475 1475 1475 1474 1474 1474 1473 1473 1473 1472 1471 1470 1469 1468 1468 1467 1467 1466 1466 1466 1465 1465 1466 1465 1465 1465 1466 1466 1465 1465 1466
1486 1487 1487 1486 1485 1483 1483 1484 1479 1473 1477 1483 1485 1485 1487 1486 1485 1486 1485 1484 1487 1488 1485 1484 1484 1481 1481 1481 1480 1478 1475 1474 1474 1476 1477 1477 1477 1478 1477 1477 1477 1476 1476 1476 1475 1473 1473 1473 1472 1472 1472 1472 1472 1472 1472 1471 1471 1470 1470 1470 1470 1469 1469 1469 1468 1468 1467 1466 1465 1464 1463 1463 1463 1462 1461 1462 1462 1462 1462 1462 1462 1463 1462 1462 1463 1463
1488 1490 1489 1487 1486 1483 1481 1482 1480 1475 1479 1485 1486 1485 1487 1487 1484 1483 1485 1487 1488 1486 1485 1485 1484 1482 1482 1481 1480 1479 1478 1477 1478 1477 1477 1476 1476 1475 1475 1474 1474 1473 1473 1472 1471 1470 1469 1468 1468 1468 1468 1468 1468 1468 1468 1468 1467 1467 1466 1466 1465 1465 1465 1465 1464 1463 1463 1462 1461 1460 1460 1459 1459 1458 1457 1458 1458 1458 1458 1459 1459 1459 1459 1460 1461 1461
1492 1494 1490 1485 1485 1485 1483 1485 1485 1482 1483 1487 1487 1486 1487 1487 1485 1484 1486 1487 1486 1485 1485 1484 1482 1482 1482 1480 1480 1479 1478 1478 1478 1476 1475 1475 1474 1473 1472 1471 1471 1470 1469 1468 1468 1467 1467 1466 1465 1465 1465 1465 1465 1464 1464 1464 1463 1462 1462 1461 1461 1462 1461 1461 1460 1459 1458 1458 1457 1457 1456 1455 1455 1454 1454 1453 1454 1455 1455 1455 1455 1455 1456 1457 1458 1459
1493 1495 1491 1485 1485 1489 1488 1485 1485 1485 1485 1487 1489 1488 1488 1488 1487 1487 1487 1485 1484 1484 1484 1482 1481 1481 1480 1479 1479 1478 1477 1477 1476 1475 1474 1473 1472 1471 1471 1470 1469 1468 1467 1466 1465 1465 1464 1463 1461 1461 1461 1461 1461 1461 1460 1460 1459 1458 1458 1457 1458 1458 1457 1456 1456 1455 1454 1454 1453 1453 1453 1452 1451 1450 1450 1450 1451 1451 1452 1451 1451 1452 1454 1455 1456 1458
1493 1494 1494 1491 1490 1492 1491 1485 1484 1486 1486 1487 1488 1488 1488 1488 1488 1487 1486 1485 1483 1483 1482 1481 1480 1480 1479 1479 1477 1476 1475 1475 1474 1473 1472 1471 1470 1469 1468 1467 1466 1465 1464 1463 1462 1462 1461 1459 1458 1457 1457 1457 1457 1456 1455 1455 1455 1453 1453 1453 1454 1453 1453 1452 1452 1451 1450 1450 1449 1449 1449 1449 1448 1447 1447 1448 1448 1448 1448 1448 1449 1450 1451 1453 1455 1458
1493 1495 1497 1496 1493 1492 1490 1487 1487 1488 1486 1486 1487 1487 1487 1487 1486 1485 1484 1483 1482 1482 1481 1481 1479 1478 1478 1477 1475 1474 1473 1472 1471 1470 1469 1468 1467 1466 1464 1464 1463 1462 1461 1460 1459 1458 1458 1456 1454 1453 1452 1452 1452 1451 1451 1450 1450 1448 1448 1449 1450 1449 1449 1448 1448 1447 1447 1446 1446 1446 1446 1445 1445 1445 1445 1445 1444 1445 1446 1446 1447 1448 1449 1451 1454 1458
1493 1496 1497 1496 1494 1493 1490 1487 1486 1487 1486 1486 1486 1485 1485 1484 1483 1483 1483 1482 1481 1481 1480 1479 1478 1476 1475 1474 1473 1471 1469 1468 1468 1466 1465 1464 1463 1461 1461 1459 1458 1457 1457 1456 1455 1454 1453 1451 1450 1449 1448 1447 1447 1447 1446 1445 1445 1444 1444 1444 1445 1445 1445 1444 1443 1443 1442 1442 1442 1442 1442 1442 1442 1442 1442 1442 1442 1443 1444 1444 1445 1446 1447 1450 1453 1456
1494 1498 1497 1494 1492 1492 1490 1487 1486 1486 1485 1485 1484 1483 1482 1482 1481 1481 1481 1481 1480 1479 1478 1476 1475 1473 1472 1471 1469 1468 1465 1464 1464 1462 1461 1460 1459 1457 1456 1455 1454 1453 1452 1451 1451 1450 1448 1447 1446 1445 1444 1443 1442 1442 1441 1440 1440 1440 1439 1439 1440 1440 1439 1439 1439 1438 1438 1438 1438 1438 1438 1438 1438 1439 1439 1440 1441 1441 1441 1442 1443 1445 1448 1451 1454 1456
1496 1497 1495 1493 1492 1490 1487 1485 1484 1483 1482 1482 1482 1481 1480 1481 1480 1479 1478 1477 1476 1475 1474 1473 1471 1470 1469 1467 1466 1464 1462 1461 1460 1459 1457 1456 1455 1454 1452 1451 1450 1449 1448 1447 1446 1445 1444 1443 1441 1440 1439 1438 1438 1437 1436 1435 1435 1435 1434 1434 1434 1434 1433 1433 1433 1433 1433 1433 1434 1434 1434 1435 1435 1436 1437 1438 1438 1439 1440 1442 1444 1446 1450 1453 1456 1458
1496 1495 1493 1493 1492 1488 1485 1484 1484 1484 1483 1480 1480 1479 1479 1479 1478 1477 1475 1474 1472 1471 1470 1469 1467 1466 1465 1463 1462 1460 1458 1457 1456 1455 1454 1452 1451 1450 1448 1447 1446 1445 1444 1443 1442 1440 1439 1438 1437 1436 1435 1434 1433 1432 1431 1430 1429 1428 1428 1428 1428 1428 1428 1428 1428 1428 1428 1429 1430 1430 1431 1432 1433 1435 1435 1435 1436 1437 1440 1444 1447 1450 1452 1455 1457 1459
1495 1494 1493 1493 1491 1488 1486 1485 1486 1486 1483 1479 1479 1478 1477 1477 1476 1474 1473 1471 1470 1469 1467 1466 1464 1462 1461 1459 1458 1457 1455 1454 1453 1452 1450 1448 1447 1446 1445 1443 1442 1440 1439 1439 1437 1436 1434 1433 1432 1431 1430 1429 1428 1427 1426 1424 1423 1422 1422 1422 1422 1422 1423 1423 1423 1423 1424 1425 1426 1427 1428 1430 1431 1432 1433 1434 1436 1438 1440 1444 1448 1451 1454 1456 1458 1460